Volver al catálogo

CZ-6A DEB

ActivoPO
NORAD 64635·DEBRIS·🇨🇳 China

Lanzado Aug 6, 2024 desde Taiyuan Satellite Launch Center

Loading…

Próximos Pases (próximas 24 horas)

TLE

ActualizadoSource: Space-Track

Época: Sep 14, 2026, 07:56 UTC

1 64635U 24140ADZ 26257.33090208  .00003390  00000-0  62492-3 0  9993
2 64635  89.1112 270.2306 0095705 301.8354  57.3568 14.62386865105906

Sigue CZ-6A DEB en tiempo real con AllMySat

Download on the App Store